• In Portugal
  • List of Countries
  • For 7 days
  • Water Temperature
  • Satellite Maps
  • Weather Map
  • Weather Widgets
  • user-avatar
    Login

    Hourly Weather Neuquén

    Today, 24 September, Monday

    Time Temperature Precipitation Wind Pressure Humidity
    00:00 +9°C° 0 mm 6 mps 736 mmHg 43%
    01:00 +9°C° 0 mm 5 mps 736 mmHg 43%
    02:00 +10°C° 0 mm 4 mps 736 mmHg 44%
    03:00 +9°C° 0 mm 3 mps 736 mmHg 44%
    04:00 +9°C° 0 mm 2 mps 736 mmHg 44%
    05:00 +9°C° 0 mm 2 mps 736 mmHg 44%
    06:00 +10°C° 0 mm 2 mps 737 mmHg 43%
    07:00 +10°C° 0 mm 2 mps 737 mmHg 42%
    08:00 +12°C° 0 mm 2 mps 736 mmHg 39%
    09:00 +12°C° 0 mm 1 mps 736 mmHg 36%
    10:00 +13°C° 0 mm 1 mps 736 mmHg 34%
    11:00 +15°C° 0 mm 2 mps 735 mmHg 31%
    12:00 +16°C° 0 mm 3 mps 735 mmHg 29%
    13:00 +18°C° 0 mm 4 mps 734 mmHg 27%
    14:00 +18°C° 0 mm 4 mps 734 mmHg 25%
    15:00 +19°C° 0 mm 3 mps 733 mmHg 23%
    16:00 +19°C° 0 mm 3 mps 733 mmHg 22%
    17:00 +19°C° 0 mm 3 mps 733 mmHg 24%
    18:00 +18°C° 0 mm 2 mps 733 mmHg 25%
    19:00 +17°C° 0 mm 2 mps 734 mmHg 27%
    20:00 +16°C° 0 mm 2 mps 734 mmHg 29%
    21:00 +16°C° 0 mm 3 mps 734 mmHg 31%
    22:00 +14°C° 0 mm 3 mps 734 mmHg 33%
    23:00 +13°C° 0 mm 3 mps 734 mmHg 35%

    Tomorrow, 25 September, Tuesday

    Time Temperature Precipitation Wind Pressure Humidity
    00:00 +13°C° 0 mm 3 mps 734 mmHg 37%
    01:00 +12°C° 0 mm 3 mps 734 mmHg 38%
    02:00 +12°C° 0 mm 3 mps 734 mmHg 40%
    03:00 +11°C° 0 mm 3 mps 734 mmHg 42%
    04:00 +11°C° 0 mm 3 mps 734 mmHg 43%
    05:00 +11°C° 0 mm 4 mps 734 mmHg 42%
    06:00 +12°C° 0 mm 4 mps 734 mmHg 40%
    07:00 +12°C° 0 mm 5 mps 735 mmHg 39%
    08:00 +13°C° 0 mm 4 mps 735 mmHg 35%
    09:00 +14°C° 0 mm 4 mps 735 mmHg 32%
    10:00 +17°C° 0 mm 4 mps 735 mmHg 28%
    11:00 +17°C° 0 mm 4 mps 734 mmHg 26%
    12:00 +18°C° 0 mm 4 mps 734 mmHg 25%
    13:00 +18°C° 0 mm 4 mps 734 mmHg 23%
    14:00 +18°C° 0 mm 4 mps 733 mmHg 23%
    15:00 +19°C° 0 mm 4 mps 733 mmHg 22%
    16:00 +19°C° 0 mm 4 mps 732 mmHg 22%
    17:00 +18°C° 0 mm 3 mps 733 mmHg 24%
    18:00 +17°C° 0 mm 3 mps 734 mmHg 26%
    19:00 +16°C° 0 mm 2 mps 734 mmHg 28%
    20:00 +15°C° 0 mm 2 mps 734 mmHg 29%
    21:00 +15°C° 0 mm 2 mps 735 mmHg 29%
    22:00 +14°C° 0 mm 2 mps 735 mmHg 30%
    23:00 +14°C° 0 mm 2 mps 735 mmHg 31%

    Day after tomorrow, 26 September, Wednesday

    Time Temperature Precipitation Wind Pressure Humidity
    00:00 +13°C° 0 mm 2 mps 735 mmHg 31%
    01:00 +12°C° 0 mm 3 mps 735 mmHg 32%
    02:00 +11°C° 0 mm 3 mps 735 mmHg 32%
    03:00 +11°C° 0 mm 4 mps 735 mmHg 33%
    04:00 +11°C° 0 mm 4 mps 735 mmHg 33%
    05:00 +10°C° 0 mm 5 mps 735 mmHg 33%
    06:00 +10°C° 0 mm 6 mps 735 mmHg 34%
    07:00 +10°C° 0 mm 7 mps 736 mmHg 34%
    08:00 +11°C° 0.1 mm 7 mps 736 mmHg 38%
    09:00 +12°C° 0.1 mm 7 mps 736 mmHg 41%
    10:00 +12°C° 0.1 mm 7 mps 736 mmHg 45%
    11:00 +12°C° 0.4 mm 7 mps 736 mmHg 50%
    12:00 +11°C° 0.4 mm 7 mps 735 mmHg 55%
    13:00 +11°C° 0.4 mm 7 mps 735 mmHg 60%
    14:00 +11°C° 0.8 mm 6 mps 735 mmHg 64%
    15:00 +10°C° 0.8 mm 6 mps 734 mmHg 69%
    16:00 +10°C° 0.8 mm 6 mps 734 mmHg 73%
    17:00 +9°C° 1.6 mm 6 mps 735 mmHg 76%
    18:00 +9°C° 1.6 mm 7 mps 735 mmHg 79%
    19:00 +9°C° 1.6 mm 7 mps 735 mmHg 82%
    20:00 +9°C° 1 mm 8 mps 735 mmHg 82%
    21:00 +8°C° 1 mm 9 mps 735 mmHg 83%
    22:00 +8°C° 1 mm 9 mps 735 mmHg 83%
    23:00 +7°C° 1.8 mm 9 mps 734 mmHg 84%

    27 September, Thursday

    Time Temperature Precipitation Wind Pressure Humidity
    00:00 +7°C° 1.8 mm 8 mps 734 mmHg 86%
    01:00 +7°C° 1.8 mm 8 mps 733 mmHg 88%
    02:00 +7°C° 1.1 mm 8 mps 733 mmHg 88%
    03:00 +8°C° 1.1 mm 7 mps 733 mmHg 88%
    04:00 +8°C° 1.1 mm 7 mps 733 mmHg 89%
    05:00 +7°C° 1.2 mm 8 mps 733 mmHg 89%
    06:00 +7°C° 1.2 mm 8 mps 733 mmHg 89%
    07:00 +7°C° 1.2 mm 8 mps 733 mmHg 89%
    08:00 +8°C° 0.5 mm 7 mps 733 mmHg 88%
    09:00 +9°C° 0.5 mm 7 mps 733 mmHg 86%
    10:00 +9°C° 0.5 mm 6 mps 732 mmHg 84%
    11:00 +10°C° 0.5 mm 6 mps 732 mmHg 84%
    12:00 +10°C° 0.5 mm 6 mps 731 mmHg 84%
    13:00 +10°C° 0.5 mm 5 mps 731 mmHg 84%
    14:00 +12°C° 0.2 mm 5 mps 731 mmHg 84%
    15:00 +12°C° 0.2 mm 5 mps 730 mmHg 83%
    16:00 +12°C° 0.2 mm 5 mps 730 mmHg 83%
    17:00 +12°C° 0.7 mm 5 mps 730 mmHg 85%
    18:00 +11°C° 0.7 mm 6 mps 731 mmHg 87%
    19:00 +10°C° 0.7 mm 6 mps 731 mmHg 89%
    20:00 +10°C° 2.2 mm 5 mps 731 mmHg 90%
    21:00 +10°C° 2.2 mm 5 mps 731 mmHg 91%
    22:00 +10°C° 2.2 mm 5 mps 730 mmHg 92%
    23:00 +10°C° 0.9 mm 5 mps 730 mmHg 92%

    28 September, Friday

    Time Temperature Precipitation Wind Pressure Humidity
    00:00 +10°C° 0.9 mm 5 mps 729 mmHg 92%
    01:00 +10°C° 0.9 mm 5 mps 729 mmHg 92%
    02:00 +11°C° 0.5 mm 4 mps 728 mmHg 93%
    03:00 +11°C° 0.5 mm 3 mps 728 mmHg 93%
    04:00 +12°C° 0.5 mm 2 mps 727 mmHg 93%
    05:00 +12°C° 0.5 mm 2 mps 727 mmHg 92%
    06:00 +13°C° 0.5 mm 2 mps 727 mmHg 91%
    07:00 +13°C° 0.5 mm 2 mps 727 mmHg 90%
    08:00 +14°C° 0.1 mm 3 mps 727 mmHg 84%
    09:00 +15°C° 0.1 mm 4 mps 726 mmHg 77%
    10:00 +16°C° 0.1 mm 5 mps 726 mmHg 70%
    11:00 +19°C° 0 mm 6 mps 726 mmHg 58%
    12:00 +20°C° 0 mm 7 mps 725 mmHg 46%
    13:00 +21°C° 0 mm 8 mps 725 mmHg 34%
    14:00 +21°C° 0 mm 8 mps 725 mmHg 34%
    15:00 +21°C° 0 mm 8 mps 724 mmHg 33%
    16:00 +20°C° 0 mm 8 mps 724 mmHg 32%
    17:00 +19°C° 0 mm 6 mps 724 mmHg 37%
    18:00 +17°C° 0 mm 5 mps 724 mmHg 42%
    19:00 +16°C° 0 mm 3 mps 724 mmHg 47%
    20:00 +16°C° 0 mm 3 mps 724 mmHg 49%
    21:00 +16°C° 0 mm 3 mps 724 mmHg 51%
    22:00 +14°C° 0 mm 3 mps 724 mmHg 53%
    23:00 +15°C° 0.3 mm 2 mps 724 mmHg 57%

    29 September, Saturday

    Time Temperature Precipitation Wind Pressure Humidity
    00:00 +14°C° 0.3 mm 2 mps 724 mmHg 62%
    01:00 +14°C° 0.3 mm 2 mps 724 mmHg 66%
    02:00 +13°C° 0 mm 2 mps 723 mmHg 68%
    03:00 +13°C° 0 mm 2 mps 723 mmHg 69%
    04:00 +12°C° 0 mm 2 mps 722 mmHg 71%
    05:00 +12°C° 0.4 mm 2 mps 723 mmHg 71%
    06:00 +12°C° 0.4 mm 3 mps 723 mmHg 71%
    07:00 +12°C° 0.4 mm 3 mps 724 mmHg 71%
    08:00 +13°C° 0.1 mm 4 mps 723 mmHg 64%
    09:00 +14°C° 0.1 mm 4 mps 723 mmHg 57%
    10:00 +15°C° 0.1 mm 5 mps 723 mmHg 50%
    11:00 +15°C° 0 mm 5 mps 723 mmHg 47%
    12:00 +16°C° 0 mm 6 mps 723 mmHg 43%
    13:00 +17°C° 0 mm 7 mps 723 mmHg 39%
    14:00 +16°C° 0 mm 7 mps 723 mmHg 37%
    15:00 +16°C° 0 mm 8 mps 723 mmHg 35%
    16:00 +16°C° 0 mm 8 mps 724 mmHg 32%
    17:00 +15°C° 0 mm 8 mps 725 mmHg 35%
    18:00 +12°C° 0 mm 9 mps 726 mmHg 38%
    19:00 +11°C° 0 mm 9 mps 727 mmHg 40%
    20:00 +10°C° 0 mm 9 mps 727 mmHg 41%
    21:00 +8°C° 0 mm 9 mps 728 mmHg 41%
    22:00 +7°C° 0 mm 10 mps 729 mmHg 41%
    23:00 +6°C° 0 mm 10 mps 730 mmHg 41%
    Show more

    3.3.7123123